Location: Branche des Alpilles
(43.6087°N, 4.6976°E)
Time: 09:39:14
(UTC+00:00)

Cosmos 1680 Rocket - Pass Details

Date: 30 November 2020
Orbit: 760 x 781 km, 74.1° (Epoch: 26 January)

Event Time Altitude Azimuth Distance (km) Brightness Sun altitude
Rises 18:17:07 0° 190° (S) 3,226 7.0 -23.1°
Reaches altitude 10° 18:19:29 10° 188° (S) 2,307 6.1 -23.6°
Enters shadow 18:24:37 66° 110° (ESE) 844 3.4 -24.5°
